Find Starlink 1560

NORAD ID: 46036 Int'l Des: 2020-055 Owner: SPXS Country: US Constellation: starlink operational
LEOCIRCULARSTARLINK_TYPE

Live Position

Loading 3D Globe...

About Starlink 1560

Description loading...

Upcoming Passes

Passes for default location (London). Set your location on the main map for personalized predictions.

Altitude History

Loading altitude history...

Two-Line Element Set

1 46036U 20055K 26127.26340952 -.00006955 00000-0 -22300-3 0 9997
2 46036 53.1586 214.6473 0001069 88.9995 271.1129 15.30189209317866
Epoch: May 7, 2026 • Age: 11 hours

Current Status

Altitude 493.8 km
Velocity 7.62 km/s
Sub-Earth Point -51.47°S, 23.31°E
Launch Date Aug 7, 2020
Age 5.7 years
Type internet

Technical Details

Classification Payload
Mass 260.00 kg
Dry Mass 248.00 kg
Total Mass 260.00 kg
Length 0.20 m
Diameter 2.80 m
Span 9.00 m
Shape Box + pan
Manufacturer SPXS
Bus Type Starlink
Phase Status In Orbit
Owner/State SPXS/US

Most Searched